Location: Gro�sch�nbrunn
(49.5760°N, 11.8868°E)
Time: 04:21:48
(UTC+00:00)

Cosmos 1844 Rocket - Visible Passes

Search period start: 17 January 2021 00:00
Search period end: 27 January 2021 00:00
Orbit: 824 x 845 km, 71.0° (Epoch: 16 January)

Date Brightness Start Highest point End Pass type
(mag) Time Alt. Az. Time Alt. Az. Time Alt. Az.
17 Jan 5.2 02:34:15 15° E 02:34:15 15° E 02:35:19 10° ESE visible
17 Jan 3.0 04:15:58 49° SSW 04:15:58 49° SSW 04:20:13 10° SSE visible
17 Jan 3.8 17:21:08 10° SSE 17:25:22 22° E 17:25:29 22° E visible
17 Jan 3.4 19:03:03 10° SW 19:07:13 49° SW 19:07:13 49° SW visible
18 Jan 3.8 04:00:06 32° S 04:00:06 32° S 04:03:03 10° SSE visible
18 Jan 3.9 17:04:10 10° SE 17:08:12 20° E 17:09:39 18° E visible
18 Jan 2.7 18:45:48 10° SW 18:51:22 75° WNW 18:51:22 75° WNW visible
18 Jan 5.4 20:32:18 10° W 20:33:06 13° WNW 20:33:06 13° WNW visible
19 Jan 4.5 03:44:19 19° SSE 03:44:19 19° SSE 03:45:52 10° SSE visible
19 Jan 4.1 16:47:14 10° SE 16:51:02 19° E 16:53:43 14° ENE visible
19 Jan 2.7 18:28:34 10° SSW 18:34:14 81° WNW 18:35:27 57° NNE visible
19 Jan 5.1 20:14:52 10° W 20:17:09 18° WNW 20:17:09 18° WNW visible
20 Jan 5.2 03:28:37 10° SSE 03:28:37 10° SSE 03:28:40 10° SSE visible
20 Jan 4.2 16:30:21 10° SE 16:33:53 17° E 16:37:25 10° ENE visible
20 Jan 2.6 18:11:19 10° SSW 18:17:00 87° WNW 18:19:24 37° NNE visible
20 Jan 4.8 19:57:24 10° W 20:01:07 21° NW 20:01:07 21° NW visible
21 Jan 2.6 17:54:06 10° SSW 17:59:47 87° ESE 18:03:17 25° NNE visible
21 Jan 4.6 19:39:58 10° W 19:44:26 23° NW 19:44:59 23° NNW visible
22 Jan 2.6 17:36:53 10° SSW 17:42:34 81° ESE 17:47:03 17° NNE visible
22 Jan 4.6 19:22:34 10° W 19:27:07 24° NW 19:28:45 21° NNW visible
23 Jan 2.6 17:19:41 10° SSW 17:25:20 75° ESE 17:30:44 11° NNE visible
23 Jan 4.5 19:05:09 10° W 19:09:49 26° NW 19:12:26 19° N visible
24 Jan 2.7 17:02:30 10° SSW 17:08:07 69° ESE 17:13:45 10° NNE visible
24 Jan 4.5 18:47:45 10° WSW 18:52:32 27° NW 18:56:02 16° N visible
25 Jan 2.8 16:45:19 10° SSW 16:50:54 64° ESE 16:56:30 10° NNE visible
25 Jan 4.4 18:30:21 10° WSW 18:35:14 29° NW 18:39:34 12° N visible
25 Jan 5.5 20:20:28 10° NNW 20:21:11 10° NNW 20:21:15 10° NNW visible
26 Jan 2.8 16:28:09 10° S 16:33:41 59° ESE 16:39:15 10° NE visible
26 Jan 4.3 18:12:58 10° WSW 18:17:57 31° NW 18:22:56 10° NNE visible
26 Jan 5.4 20:02:36 10° NW 20:03:49 11° NNW 20:04:43 10° NNW visible
